Home   Weather   42°16'N, 71°51'W   Past weeks
Flag for USA

Past Weather in 42°16'N, 71°51'W, USA — Yesterday and Last 2 Weeks

Now
29 °F

Clear.


Feels Like: 21 °F
Forecast: 55 / 32 °F
Wind: 8 mph from Southwest

Location: Worcester Regional Airport

Current Time: Feb 24, 2020 at 4:52:37 am

Latest Report: Feb 24, 2020 at 3:54 am


Visibility: 10 mi

Pressure: 30.03 "Hg

Humidity: 61%

Dew Point: 17 °F

Location of 42°16'N, 71°51'WLocation

Past Weather in 42°16'N, 71°51'W — Graph

°F

42°16'N, 71°51'W Temperature Yesterday

Maximum temperature yesterday: 49 °F (at 1:54 pm)
Minimum temperature yesterday: 31 °F (at 2:54 am)
Average temperature yesterday: 38 °F

High & Low Weather Summary for the Past Weeks

 TemperatureHumidityPressure
High49 °F (Feb 23, 1:54 pm)100% (Feb 13, 12:03 pm)30.61 "Hg (Feb 13, 12:03 pm)
Low5 °F (Feb 15, 3:54 am)21% (Feb 21, 12:54 pm)29.53 "Hg (Feb 13, 1:12 pm)
Average30 °F67%30.13 "Hg
* Reported Feb 9 2:54 am — Feb 24 2:54 am, 42°16'N, 71°51'W. Weather by CustomWeather, © 2020

Note: Actual official high and low records may vary slightly from our data, if they occured in-between our weather recording intervals... More about our weather records

42°16'N, 71°51'W Weather History for the Previous 24 Hours

Scroll right to see more
 ConditionsComfort  
Time TempWeatherWind HumidityBarometerVisibility
2:54 am
Mon, Feb 24
33 °FClear.9 mph52%30.04 "Hg10 mi
1:54 am32 °FClear.8 mph54%30.05 "Hg10 mi
12:54 am33 °FClear.6 mph52%30.06 "Hg10 mi
11:54 pm
Sun, Feb 23
33 °FClear.9 mph49%30.06 "Hg10 mi
10:54 pm33 °FClear.10 mph49%30.06 "Hg10 mi
9:54 pm34 °FClear.12 mph50%30.07 "Hg10 mi
8:54 pm37 °FClear.9 mph42%30.07 "Hg10 mi
7:54 pm40 °FClear.13 mph38%30.06 "Hg10 mi
6:54 pm41 °FClear.8 mph38%30.07 "Hg10 mi
5:54 pm43 °FClear.9 mph35%30.06 "Hg10 mi
4:54 pm47 °FSunny.10 mph32%30.05 "Hg10 mi
3:54 pm48 °FSunny.15 mph32%30.06 "Hg10 mi
2:54 pm49 °FSunny.15 mph29%30.06 "Hg10 mi
1:54 pm49 °FSunny.14 mph29%30.07 "Hg10 mi
12:54 pm46 °FSunny.10 mph34%30.09 "Hg10 mi
11:54 am46 °FSunny.15 mph35%30.12 "Hg10 mi
10:54 am44 °FSunny.14 mph37%30.14 "Hg10 mi
9:54 am41 °FSunny.17 mph39%30.15 "Hg10 mi
8:54 am38 °FSunny.14 mph43%30.16 "Hg10 mi
7:54 am34 °FSunny.9 mph48%30.16 "Hg10 mi
6:54 am32 °FSunny.13 mph50%30.14 "Hg10 mi
5:54 am31 °FClear.12 mph52%30.14 "Hg10 mi
4:54 am32 °FClear.12 mph50%30.14 "Hg10 mi
Weather by CustomWeather, © 2020

See weather overview

Advertising